Location: Ch�teau-Arnoux
(44.0814°N, 6.0027°E)
Time: 22:17:25
(UTC+00:00)

Cosmos 372 Rocket - Pass Details

Date: 15 November 2019
Orbit: 739 x 767 km, 74.1° (Epoch: 11 December)

Event Time Altitude Azimuth Distance (km) Brightness Sun altitude
Rises 05:51:06 0° 209° (SSW) 3,196 7.1 -7.4°
Reaches altitude 10° 05:53:30 10° 213° (SSW) 2,271 6.3 -7.0°
Maximum altitude 05:58:35 60° 294° (WNW) 861 4.0 -6.1°
Drops below altitude 10° 06:03:40 10° 14° (NNE) 2,269 6.4 -5.3°
Sets 06:06:04 0° 18° (NNE) 3,193 7.2 -4.9°
